{"data":{"norad_id":66083,"epoch":"2026-09-20T19:20:39.238944Z","epoch_age_seconds":76555,"freshness":"FRESH","line1":"1 66083U 25235AB  26263.80600971  .00023169  00000+0  69460-3 0  9998","line2":"2 66083  53.1592  58.3346 0000803  86.1381 273.9714 15.34405832 52776","mean_motion":15.34405832,"eccentricity":8.03e-5,"inclination_deg":53.1592,"raan_deg":58.3346,"arg_perigee_deg":86.1381,"mean_anomaly_deg":273.9714,"bstar":0.0006946,"rev_number":5277,"period_min":93.847401382922,"perigee_km":462.13658824959,"apogee_km":463.23522440835,"semimajor_km":6840.822906329,"source":"CELESTRAK","updated_at":"2026-09-21T09:00:35.799289Z"}}